Starlink 2748

operational
NORAD ID: 48694 Int'l Des: 2021-044 Owner: SPXS Country: US Constellation: starlink
LEOCIRCULAR

关于 Starlink 2748

正在加载描述...

实时位置

正在加载3D地球...

即将过境

高度历史

Altitude vs Time

uPlot chart will show altitude changes over time

两行轨道根数

1 48694U 21044BJ 26061.16225487 .00006149 00000-0 21954-3 0 9996
2 48694 53.1591 113.4730 0001391 88.4687 271.6473 15.30202370263162
Epoch: Mar 2, 2026 • Age: 29 hours

当前状态

高度 494.5 km
速度 7.62 km/s
星下点 -53.02°S, 140.95°E
发射日期 May 26, 2021
运行时间 4.7 years
类型 internet

技术详情

分类 Payload
质量 260.00 kg
干质量 248.00 kg
总质量 260.00 kg
长度 0.20 m
直径 2.80 m
跨度 9.00 m
形状 Box + pan
制造商 SPXS
平台类型 Starlink
阶段状态 In Orbit
所有者/国家 SPXS/US

大型星座

Loading constellations...